"Sample Date","Sample Time","Sample Value","Units","Flow Rate","Sample Interval","Number Channels","Micron Size 0","Counts/Channel 0","Micron Size 1","Counts/Channel 1","Micron Size 2","Counts/Channel 2","Micron Size 3","Counts/Channel 3","Micron Size 4","Counts/Channel 4","Micron Size 5","Counts/Channel 5","Micron Size 6","Counts/Channel 6","Micron Size 7","Counts/Channel 7","Micron Size 8","Counts/Channel 8","Micron Size 9","Counts/Channel 9","Micron Size 10","Counts/Channel 10","Micron Size 11","Counts/Channel 11","Micron Size 12","Counts/Channel 12","Micron Size 13","Counts/Channel 13","Micron Size 14","Counts/Channel 14","Micron Size 15","Counts/Channel 15","Micron Size 16","Counts/Channel 16","Micron Size 17","Counts/Channel 17","Micron Size 18","Counts/Channel 18","Micron Size 19","Counts/Channel 19","Micron Size 20","Counts/Channel 20","Micron Size 21","Counts/Channel 21","Micron Size 22","Counts/Channel 22","Micron Size 23","Counts/Channel 23","Micron Size 24","Counts/Channel 24","Micron Size 25","Counts/Channel 25","Micron Size 26","Counts/Channel 26","Micron Size 27","Counts/Channel 27","Micron Size 28","Counts/Channel 28","Micron Size 29","Counts/Channel 29","Micron Size 30","Counts/Channel 30","Micron Size 31","Counts/Channel 31"
"03/04/08","19:00:05",43205.000,"cc",28331.881,6.00,6,0.100,38532.000,0.200,2557.000,0.300,889.000,0.500,897.000,1.000,330.000,5.000,0
"03/04/08","19:00:11",42897.000,"cc",28336.215,6.00,6,0.100,38065.000,0.200,2638.000,0.300,875.000,0.500,992.000,1.000,327.000,5.000,0
"03/04/08","19:00:17",43215.000,"cc",28286.344,6.00,6,0.100,38582.000,0.200,2502.000,0.300,860.000,0.500,923.000,1.000,348.000,5.000,0
"03/04/08","19:00:23",43297.000,"cc",28300.727,6.00,6,0.100,38648.000,0.200,2513.000,0.300,889.000,0.500,928.000,1.000,319.000,5.000,0
"03/04/08","19:00:29",43324.000,"cc",28336.904,6.00,6,0.100,38532.000,0.200,2628.000,0.300,873.000,0.500,953.000,1.000,338.000,5.000,0
"03/04/08","19:00:35",43338.000,"cc",28312.289,6.00,6,0.100,38627.000,0.200,2607.000,0.300,814.000,0.500,975.000,1.000,315.000,5.000,0
"03/04/08","19:00:41",43125.000,"cc",28303.404,6.00,6,0.100,38306.000,0.200,2701.000,0.300,811.000,0.500,954.000,1.000,353.000,5.000,0
"03/04/08","19:00:47",43618.000,"cc",28329.588,6.00,6,0.100,38853.000,0.200,2573.000,0.300,892.000,0.500,971.000,1.000,329.000,5.000,0
"03/04/08","19:00:53",42961.000,"cc",28268.529,6.00,6,0.100,38329.000,0.200,2543.000,0.300,864.000,0.500,932.000,1.000,293.000,5.000,0
"03/04/08","19:00:59",43477.000,"cc",28321.287,6.00,6,0.100,38739.000,0.200,2621.000,0.300,837.000,0.500,947.000,1.000,333.000,5.000,0
"03/04/08","19:01:05",43537.000,"cc",28359.773,6.00,6,0.100,38683.000,0.200,2678.000,0.300,880.000,0.500,955.000,1.000,341.000,5.000,0
"03/04/08","19:01:11",43401.000,"cc",28317.094,6.00,6,0.100,38674.000,0.200,2589.000,0.300,868.000,0.500,926.000,1.000,344.000,5.000,0
"03/04/08","19:01:17",43090.000,"cc",28299.404,6.00,6,0.100,38518.000,0.200,2510.000,0.300,848.000,0.500,909.000,1.000,305.000,5.000,0
"03/04/08","19:01:23",43135.000,"cc",28289.320,6.00,6,0.100,38326.000,0.200,2647.000,0.300,864.000,0.500,961.000,1.000,337.000,5.000,0
"03/04/08","19:01:29",43319.000,"cc",28336.992,6.00,6,0.100,38560.000,0.200,2625.000,0.300,867.000,0.500,933.000,1.000,334.000,5.000,0
"03/04/08","19:01:35",43053.000,"cc",28296.686,6.00,6,0.100,38310.000,0.200,2567.000,0.300,934.000,0.500,913.000,1.000,329.000,5.000,0
"03/04/08","19:01:41",43619.000,"cc",28328.301,6.00,6,0.100,38820.000,0.200,2673.000,0.300,824.000,0.500,949.000,1.000,353.000,5.000,0
"03/04/08","19:01:47",43627.000,"cc",28311.152,6.00,6,0.100,38886.000,0.200,2622.000,0.300,895.000,0.500,928.000,1.000,296.000,5.000,0
"03/04/08","19:01:53",43877.000,"cc",28294.848,6.00,6,0.100,39031.000,0.200,2677.000,0.300,896.000,0.500,949.000,1.000,324.000,5.000,0
"03/04/08","19:01:59",43525.000,"cc",28335.098,6.00,6,0.100,38610.000,0.200,2696.000,0.300,867.000,0.500,1017.000,1.000,335.000,5.000,0
"03/04/08","19:02:05",43356.000,"cc",28324.000,6.00,6,0.100,38608.000,0.200,2587.000,0.300,840.000,0.500,967.000,1.000,354.000,5.000,0
"03/04/08","19:02:11",43782.000,"cc",28335.502,6.00,6,0.100,39017.000,0.200,2628.000,0.300,876.000,0.500,945.000,1.000,316.000,5.000,0
"03/04/08","19:02:17",43217.000,"cc",28326.744,6.00,6,0.100,38422.000,0.200,2647.000,0.300,916.000,0.500,911.000,1.000,321.000,5.000,0
"03/04/08","19:02:23",43824.000,"cc",28314.322,6.00,6,0.100,39032.000,0.200,2643.000,0.300,902.000,0.500,950.000,1.000,297.000,5.000,0
"03/04/08","19:02:29",43486.000,"cc",28287.363,6.00,6,0.100,38586.000,0.200,2701.000,0.300,884.000,0.500,982.000,1.000,333.000,5.000,0
"03/04/08","19:02:35",43439.000,"cc",28369.293,6.00,6,0.100,38596.000,0.200,2704.000,0.300,895.000,0.500,917.000,1.000,327.000,5.000,0
"03/04/08","19:02:41",43509.000,"cc",28274.223,6.00,6,0.100,38823.000,0.200,2578.000,0.300,870.000,0.500,940.000,1.000,298.000,5.000,0
"03/04/08","19:02:47",43448.000,"cc",28356.861,6.00,6,0.100,38553.000,0.200,2676.000,0.300,886.000,0.500,1020.000,1.000,313.000,5.000,0
"03/04/08","19:02:53",43258.000,"cc",28336.510,6.00,6,0.100,38499.000,0.200,2623.000,0.300,858.000,0.500,929.000,1.000,349.000,5.000,0
"03/04/08","19:02:59",43008.000,"cc",28332.469,6.00,6,0.100,38248.000,0.200,2597.000,0.300,911.000,0.500,957.000,1.000,295.000,5.000,0
"03/04/08","19:03:05",42917.000,"cc",28235.990,6.00,6,0.100,38308.000,0.200,2564.000,0.300,832.000,0.500,895.000,1.000,318.000,5.000,0
"03/04/08","19:03:11",43372.000,"cc",28307.723,6.00,6,0.100,38535.000,0.200,2710.000,0.300,882.000,0.500,923.000,1.000,322.000,5.000,0
"03/04/08","19:03:17",43417.000,"cc",28279.291,6.00,6,0.100,38749.000,0.200,2560.000,0.300,822.000,0.500,932.000,1.000,354.000,5.000,0
"03/04/08","19:03:23",43331.000,"cc",28319.158,6.00,6,0.100,38638.000,0.200,2574.000,0.300,840.000,0.500,985.000,1.000,294.000,5.000,0
"03/04/08","19:03:29",43260.000,"cc",28349.736,6.00,6,0.100,38554.000,0.200,2646.000,0.300,897.000,0.500,877.000,1.000,286.000,5.000,0
"03/04/08","19:03:35",43046.000,"cc",28355.426,6.00,6,0.100,38367.000,0.200,2604.000,0.300,830.000,0.500,934.000,1.000,311.000,5.000,0
"03/04/08","19:03:41",42917.000,"cc",28307.135,6.00,6,0.100,38266.000,0.200,2580.000,0.300,813.000,0.500,914.000,1.000,344.000,5.000,0
"03/04/08","19:03:47",43411.000,"cc",28206.461,6.00,6,0.100,38732.000,0.200,2644.000,0.300,883.000,0.500,888.000,1.000,264.000,5.000,0
"03/04/08","19:03:53",43614.000,"cc",28379.424,6.00,6,0.100,38911.000,0.200,2571.000,0.300,896.000,0.500,920.000,1.000,316.000,5.000,0
"03/04/08","19:03:59",42999.000,"cc",28300.807,6.00,6,0.100,38390.000,0.200,2554.000,0.300,860.000,0.500,894.000,1.000,301.000,5.000,0
"03/04/08","19:04:05",43014.000,"cc",28360.162,6.00,6,0.100,38399.000,0.200,2550.000,0.300,871.000,0.500,873.000,1.000,321.000,5.000,0
"03/04/08","19:04:11",43137.000,"cc",28329.688,6.00,6,0.100,38381.000,0.200,2640.000,0.300,834.000,0.500,946.000,1.000,336.000,5.000,0
"03/04/08","19:04:17",43645.000,"cc",28282.428,6.00,6,0.100,38915.000,0.200,2558.000,0.300,895.000,0.500,961.000,1.000,316.000,5.000,0
"03/04/08","19:04:23",43222.000,"cc",28297.811,6.00,6,0.100,38494.000,0.200,2612.000,0.300,887.000,0.500,927.000,1.000,302.000,5.000,0
"03/04/08","19:04:29",43257.000,"cc",28376.482,6.00,6,0.100,38442.000,0.200,2652.000,0.300,905.000,0.500,945.000,1.000,313.000,5.000,0
"03/04/08","19:04:35",42801.000,"cc",28287.565,6.00,6,0.100,38068.000,0.200,2592.000,0.300,924.000,0.500,900.000,1.000,317.000,5.000,0
"03/04/08","19:04:41",43394.000,"cc",28259.053,6.00,6,0.100,38658.000,0.200,2655.000,0.300,878.000,0.500,935.000,1.000,268.000,5.000,0
"03/04/08","19:04:47",43228.000,"cc",28299.467,6.00,6,0.100,38491.000,0.200,2625.000,0.300,875.000,0.500,921.000,1.000,316.000,5.000,0
"03/04/08","19:04:53",43382.000,"cc",28384.488,6.00,6,0.100,38831.000,0.200,2543.000,0.300,845.000,0.500,849.000,1.000,314.000,5.000,0
"03/04/08","19:04:59",43401.000,"cc",28308.232,6.00,6,0.100,38685.000,0.200,2620.000,0.300,842.000,0.500,947.000,1.000,307.000,5.000,0
"03/04/08","19:05:05",43365.000,"cc",28304.141,6.00,6,0.100,38525.000,0.200,2670.000,0.300,879.000,0.500,953.000,1.000,338.000,5.000,0
"03/04/08","19:05:11",43372.000,"cc",28307.467,6.00,6,0.100,38746.000,0.200,2671.000,0.300,816.000,0.500,867.000,1.000,272.000,5.000,0
"03/04/08","19:05:17",43458.000,"cc",28310.566,6.00,6,0.100,38699.000,0.200,2673.000,0.300,853.000,0.500,930.000,1.000,303.000,5.000,0
"03/04/08","19:05:23",43754.000,"cc",28313.373,6.00,6,0.100,39039.000,0.200,2602.000,0.300,888.000,0.500,911.000,1.000,314.000,5.000,0
"03/04/08","19:05:29",43809.000,"cc",28317.900,6.00,6,0.100,39110.000,0.200,2539.000,0.300,909.000,0.500,919.000,1.000,332.000,5.000,0
"03/04/08","19:05:35",43240.000,"cc",28303.678,6.00,6,0.100,38455.000,0.200,2626.000,0.300,880.000,0.500,952.000,1.000,327.000,5.000,0
"03/04/08","19:05:41",43249.000,"cc",28333.834,6.00,6,0.100,38527.000,0.200,2638.000,0.300,879.000,0.500,898.000,1.000,307.000,5.000,0
"03/04/08","19:05:47",43335.000,"cc",28385.856,6.00,6,0.100,38631.000,0.200,2657.000,0.300,878.000,0.500,855.000,1.000,314.000,5.000,0
"03/04/08","19:05:53",43316.000,"cc",28268.748,6.00,6,0.100,38554.000,0.200,2688.000,0.300,861.000,0.500,891.000,1.000,322.000,5.000,0
"03/04/08","19:05:59",43560.000,"cc",28281.148,6.00,6,0.100,38804.000,0.200,2587.000,0.300,907.000,0.500,945.000,1.000,317.000,5.000,0
"03/04/08","19:06:05",43501.000,"cc",28298.121,6.00,6,0.100,38656.000,0.200,2759.000,0.300,862.000,0.500,920.000,1.000,304.000,5.000,0
"03/04/08","19:06:11",43265.000,"cc",28357.391,6.00,6,0.100,38522.000,0.200,2660.000,0.300,863.000,0.500,903.000,1.000,317.000,5.000,0
"03/04/08","19:06:17",43565.000,"cc",28262.279,6.00,6,0.100,38768.000,0.200,2747.000,0.300,852.000,0.500,907.000,1.000,291.000,5.000,0
"03/04/08","19:06:23",43531.000,"cc",28294.541,6.00,6,0.100,38856.000,0.200,2572.000,0.300,885.000,0.500,896.000,1.000,322.000,5.000,0
"03/04/08","19:06:29",43130.000,"cc",28359.959,6.00,6,0.100,38564.000,0.200,2505.000,0.300,870.000,0.500,870.000,1.000,321.000,5.000,0
"03/04/08","19:06:35",43080.000,"cc",28269.686,6.00,6,0.100,38416.000,0.200,2676.000,0.300,806.000,0.500,830.000,1.000,352.000,5.000,0
"03/04/08","19:06:41",43551.000,"cc",28316.453,6.00,6,0.100,38868.000,0.200,2605.000,0.300,847.000,0.500,909.000,1.000,322.000,5.000,0
"03/04/08","19:06:47",43664.000,"cc",28317.879,6.00,6,0.100,38900.000,0.200,2733.000,0.300,803.000,0.500,937.000,1.000,291.000,5.000,0
"03/04/08","19:06:53",43276.000,"cc",28351.918,6.00,6,0.100,38596.000,0.200,2641.000,0.300,878.000,0.500,887.000,1.000,274.000,5.000,0
"03/04/08","19:06:59",43764.000,"cc",28350.742,6.00,6,0.100,39101.000,0.200,2638.000,0.300,853.000,0.500,889.000,1.000,283.000,5.000,0
"03/04/08","19:07:05",43600.000,"cc",28289.184,6.00,6,0.100,38854.000,0.200,2628.000,0.300,896.000,0.500,917.000,1.000,305.000,5.000,0
"03/04/08","19:07:11",43014.000,"cc",28335.867,6.00,6,0.100,38199.000,0.200,2750.000,0.300,881.000,0.500,872.000,1.000,312.000,5.000,0
"03/04/08","19:07:17",43100.000,"cc",28371.094,6.00,6,0.100,38358.000,0.200,2658.000,0.300,878.000,0.500,882.000,1.000,324.000,5.000,0
"03/04/08","19:07:23",43485.000,"cc",28332.760,6.00,6,0.100,38760.000,0.200,2657.000,0.300,884.000,0.500,902.000,1.000,282.000,5.000,0
"03/04/08","19:07:29",43349.000,"cc",28235.897,6.00,6,0.100,38576.000,0.200,2633.000,0.300,916.000,0.500,888.000,1.000,336.000,5.000,0
"03/04/08","19:07:35",43640.000,"cc",28255.078,6.00,6,0.100,39034.000,0.200,2587.000,0.300,825.000,0.500,881.000,1.000,313.000,5.000,0
"03/04/08","19:07:41",43111.000,"cc",28341.484,6.00,6,0.100,38403.000,0.200,2634.000,0.300,876.000,0.500,891.000,1.000,307.000,5.000,0
"03/04/08","19:07:47",43160.000,"cc",28343.193,6.00,6,0.100,38429.000,0.200,2719.000,0.300,811.000,0.500,877.000,1.000,324.000,5.000,0
"03/04/08","19:07:53",43515.000,"cc",28346.898,6.00,6,0.100,38803.000,0.200,2652.000,0.300,837.000,0.500,942.000,1.000,281.000,5.000,0
"03/04/08","19:07:59",43555.000,"cc",28252.115,6.00,6,0.100,38768.000,0.200,2695.000,0.300,886.000,0.500,888.000,1.000,318.000,5.000,0
"03/04/08","19:08:05",43220.000,"cc",28339.756,6.00,6,0.100,38650.000,0.200,2551.000,0.300,871.000,0.500,864.000,1.000,284.000,5.000,0
"03/04/08","19:08:11",43458.000,"cc",28330.652,6.00,6,0.100,38668.000,0.200,2698.000,0.300,811.000,0.500,943.000,1.000,338.000,5.000,0
"03/04/08","19:08:17",43346.000,"cc",28322.422,6.00,6,0.100,38614.000,0.200,2689.000,0.300,814.000,0.500,897.000,1.000,332.000,5.000,0
"03/04/08","19:08:23",43301.000,"cc",28274.688,6.00,6,0.100,38624.000,0.200,2626.000,0.300,886.000,0.500,869.000,1.000,296.000,5.000,0
"03/04/08","19:08:29",42993.000,"cc",28334.223,6.00,6,0.100,38358.000,0.200,2670.000,0.300,832.000,0.500,850.000,1.000,283.000,5.000,0
"03/04/08","19:08:35",43151.000,"cc",28295.668,6.00,6,0.100,38461.000,0.200,2663.000,0.300,828.000,0.500,888.000,1.000,311.000,5.000,0
"03/04/08","19:08:41",43380.000,"cc",28326.166,6.00,6,0.100,38716.000,0.200,2599.000,0.300,874.000,0.500,866.000,1.000,325.000,5.000,0
"03/04/08","19:08:47",43691.000,"cc",28343.766,6.00,6,0.100,39029.000,0.200,2568.000,0.300,894.000,0.500,886.000,1.000,314.000,5.000,0
"03/04/08","19:08:53",43747.000,"cc",28388.490,6.00,6,0.100,39054.000,0.200,2644.000,0.300,825.000,0.500,920.000,1.000,304.000,5.000,0
"03/04/08","19:08:59",44078.000,"cc",28212.555,6.00,6,0.100,39418.000,0.200,2596.000,0.300,840.000,0.500,925.000,1.000,299.000,5.000,0
"03/04/08","19:09:05",44544.000,"cc",28305.445,6.00,6,0.100,39863.000,0.200,2642.000,0.300,844.000,0.500,874.000,1.000,321.000,5.000,0
"03/04/08","19:09:11",44476.000,"cc",28301.727,6.00,6,0.100,39783.000,0.200,2636.000,0.300,861.000,0.500,857.000,1.000,339.000,5.000,0
"03/04/08","19:09:17",44518.000,"cc",28333.260,6.00,6,0.100,39867.000,0.200,2602.000,0.300,833.000,0.500,877.000,1.000,339.000,5.000,0
"03/04/08","19:09:23",44538.000,"cc",28364.145,6.00,6,0.100,39860.000,0.200,2626.000,0.300,896.000,0.500,862.000,1.000,294.000,5.000,0
"03/04/08","19:09:29",44727.000,"cc",28328.084,6.00,6,0.100,40009.000,0.200,2603.000,0.300,836.000,0.500,933.000,1.000,346.000,5.000,0
"03/04/08","19:09:35",44613.000,"cc",28284.174,6.00,6,0.100,39945.000,0.200,2553.000,0.300,848.000,0.500,942.000,1.000,325.000,5.000,0
"03/04/08","19:09:41",45102.000,"cc",28256.826,6.00,6,0.100,40279.000,0.200,2780.000,0.300,882.000,0.500,850.000,1.000,311.000,5.000,0
"03/04/08","19:09:47",44961.000,"cc",28320.840,6.00,6,0.100,40188.000,0.200,2686.000,0.300,884.000,0.500,886.000,1.000,317.000,5.000,0
"03/04/08","19:09:53",44684.000,"cc",28337.262,6.00,6,0.100,39932.000,0.200,2632.000,0.300,876.000,0.500,903.000,1.000,341.000,5.000,0
"03/04/08","19:09:59",44289.000,"cc",28317.699,6.00,6,0.100,39660.000,0.200,2599.000,0.300,822.000,0.500,895.000,1.000,313.000,5.000,0
"03/04/08","19:10:05",44443.000,"cc",28371.914,6.00,6,0.100,39712.000,0.200,2661.000,0.300,853.000,0.500,889.000,1.000,328.000,5.000,0
"03/04/08","19:10:11",44677.000,"cc",28284.029,6.00,6,0.100,39856.000,0.200,2682.000,0.300,881.000,0.500,922.000,1.000,336.000,5.000,0
"03/04/08","19:10:17",44845.000,"cc",28314.457,6.00,6,0.100,40096.000,0.200,2626.000,0.300,876.000,0.500,941.000,1.000,306.000,5.000,0
"03/04/08","19:10:23",44683.000,"cc",28346.678,6.00,6,0.100,40010.000,0.200,2638.000,0.300,815.000,0.500,919.000,1.000,301.000,5.000,0
"03/04/08","19:10:29",45005.000,"cc",28312.557,6.00,6,0.100,40251.000,0.200,2690.000,0.300,824.000,0.500,911.000,1.000,329.000,5.000,0
"03/04/08","19:10:35",44867.000,"cc",28282.158,6.00,6,0.100,40136.000,0.200,2582.000,0.300,897.000,0.500,927.000,1.000,325.000,5.000,0
"03/04/08","19:10:41",44860.000,"cc",28292.328,6.00,6,0.100,40160.000,0.200,2616.000,0.300,853.000,0.500,872.000,1.000,358.000,5.000,1.000
"03/04/08","19:10:47",44539.000,"cc",28399.451,6.00,6,0.100,39815.000,0.200,2657.000,0.300,787.000,0.500,914.000,1.000,366.000,5.000,0
"03/04/08","19:10:53",44962.000,"cc",28370.477,6.00,6,0.100,40214.000,0.200,2676.000,0.300,832.000,0.500,910.000,1.000,330.000,5.000,0
"03/04/08","19:10:59",44342.000,"cc",28262.139,6.00,6,0.100,39574.000,0.200,2671.000,0.300,864.000,0.500,924.000,1.000,309.000,5.000,0
"03/04/08","19:11:05",44991.000,"cc",28226.481,6.00,6,0.100,40236.000,0.200,2584.000,0.300,875.000,0.500,967.000,1.000,329.000,5.000,0
"03/04/08","19:11:11",44788.000,"cc",28349.643,6.00,6,0.100,39971.000,0.200,2693.000,0.300,849.000,0.500,928.000,1.000,347.000,5.000,0
"03/04/08","19:11:17",45292.000,"cc",28337.029,6.00,6,0.100,40402.000,0.200,2705.000,0.300,882.000,0.500,965.000,1.000,338.000,5.000,0
"03/04/08","19:11:23",44935.000,"cc",28346.836,6.00,6,0.100,40186.000,0.200,2711.000,0.300,854.000,0.500,883.000,1.000,301.000,5.000,0
"03/04/08","19:11:29",44936.000,"cc",28245.859,6.00,6,0.100,40246.000,0.200,2600.000,0.300,841.000,0.500,923.000,1.000,326.000,5.000,0
"03/04/08","19:11:35",44665.000,"cc",28256.432,6.00,6,0.100,39951.000,0.200,2591.000,0.300,875.000,0.500,924.000,1.000,324.000,5.000,0
"03/04/08","19:11:41",44109.000,"cc",28343.357,6.00,6,0.100,39462.000,0.200,2563.000,0.300,826.000,0.500,931.000,1.000,327.000,5.000,0
"03/04/08","19:11:47",44756.000,"cc",28315.182,6.00,6,0.100,39990.000,0.200,2645.000,0.300,857.000,0.500,923.000,1.000,341.000,5.000,0
"03/04/08","19:11:53",44746.000,"cc",28313.008,6.00,6,0.100,39985.000,0.200,2647.000,0.300,888.000,0.500,868.000,1.000,358.000,5.000,0
"03/04/08","19:11:59",44858.000,"cc",28331.172,6.00,6,0.100,40093.000,0.200,2687.000,0.300,889.000,0.500,829.000,1.000,360.000,5.000,0
"03/04/08","19:12:05",44769.000,"cc",28349.715,6.00,6,0.100,40158.000,0.200,2628.000,0.300,773.000,0.500,878.000,1.000,332.000,5.000,0
"03/04/08","19:12:11",44722.000,"cc",28317.586,6.00,6,0.100,40017.000,0.200,2601.000,0.300,889.000,0.500,881.000,1.000,334.000,5.000,0
"03/04/08","19:12:17",44679.000,"cc",28288.551,6.00,6,0.100,39824.000,0.200,2707.000,0.300,883.000,0.500,921.000,1.000,344.000,5.000,0
"03/04/08","19:12:23",45003.000,"cc",28284.996,6.00,6,0.100,40245.000,0.200,2677.000,0.300,837.000,0.500,927.000,1.000,317.000,5.000,0
"03/04/08","19:12:29",44879.000,"cc",28296.967,6.00,6,0.100,40145.000,0.200,2626.000,0.300,849.000,0.500,903.000,1.000,356.000,5.000,0
"03/04/08","19:12:35",44525.000,"cc",28367.709,6.00,6,0.100,39809.000,0.200,2640.000,0.300,810.000,0.500,928.000,1.000,338.000,5.000,0
"03/04/08","19:12:41",44830.000,"cc",28304.988,6.00,6,0.100,40011.000,0.200,2686.000,0.300,854.000,0.500,943.000,1.000,336.000,5.000,0
"03/04/08","19:12:47",44925.000,"cc",28312.934,6.00,6,0.100,40238.000,0.200,2683.000,0.300,806.000,0.500,878.000,1.000,320.000,5.000,0
"03/04/08","19:12:53",44961.000,"cc",28357.734,6.00,6,0.100,40154.000,0.200,2727.000,0.300,809.000,0.500,918.000,1.000,353.000,5.000,0
"03/04/08","19:12:59",44586.000,"cc",28291.402,6.00,6,0.100,39909.000,0.200,2617.000,0.300,864.000,0.500,877.000,1.000,319.000,5.000,0
"03/04/08","19:13:05",44801.000,"cc",28322.760,6.00,6,0.100,40034.000,0.200,2648.000,0.300,918.000,0.500,862.000,1.000,339.000,5.000,0
"03/04/08","19:13:11",44511.000,"cc",28279.801,6.00,6,0.100,39716.000,0.200,2648.000,0.300,835.000,0.500,981.000,1.000,331.000,5.000,0
"03/04/08","19:13:17",45030.000,"cc",28280.459,6.00,6,0.100,40203.000,0.200,2657.000,0.300,898.000,0.500,890.000,1.000,382.000,5.000,0
"03/04/08","19:13:23",45142.000,"cc",28386.082,6.00,6,0.100,40437.000,0.200,2605.000,0.300,855.000,0.500,914.000,1.000,331.000,5.000,0
"03/04/08","19:13:29",44643.000,"cc",28351.441,6.00,6,0.100,40056.000,0.200,2555.000,0.300,817.000,0.500,875.000,1.000,340.000,5.000,0
"03/04/08","19:13:35",45071.000,"cc",28337.152,6.00,6,0.100,40157.000,0.200,2819.000,0.300,870.000,0.500,920.000,1.000,305.000,5.000,0
"03/04/08","19:13:41",44639.000,"cc",28285.537,6.00,6,0.100,39613.000,0.200,2803.000,0.300,907.000,0.500,989.000,1.000,327.000,5.000,0
"03/04/08","19:13:47",44798.000,"cc",28291.016,6.00,6,0.100,40049.000,0.200,2624.000,0.300,896.000,0.500,886.000,1.000,343.000,5.000,0
"03/04/08","19:13:53",44594.000,"cc",28254.926,6.00,6,0.100,39730.000,0.200,2713.000,0.300,887.000,0.500,937.000,1.000,327.000,5.000,0
"03/04/08","19:13:59",44345.000,"cc",28346.629,6.00,6,0.100,39652.000,0.200,2628.000,0.300,867.000,0.500,851.000,1.000,347.000,5.000,0
"03/04/08","19:14:05",44625.000,"cc",28337.555,6.00,6,0.100,39866.000,0.200,2662.000,0.300,863.000,0.500,899.000,1.000,335.000,5.000,0
"03/04/08","19:14:11",44570.000,"cc",28363.266,6.00,6,0.100,39868.000,0.200,2584.000,0.300,872.000,0.500,920.000,1.000,326.000,5.000,0
"03/04/08","19:14:17",44866.000,"cc",28244.678,6.00,6,0.100,40192.000,0.200,2682.000,0.300,854.000,0.500,826.000,1.000,312.000,5.000,0
"03/04/08","19:14:23",45144.000,"cc",28324.047,6.00,6,0.100,40443.000,0.200,2583.000,0.300,853.000,0.500,943.000,1.000,322.000,5.000,0
"03/04/08","19:14:29",45173.000,"cc",28391.148,6.00,6,0.100,40400.000,0.200,2657.000,0.300,828.000,0.500,952.000,1.000,336.000,5.000,0
"03/04/08","19:14:35",44978.000,"cc",28347.682,6.00,6,0.100,40145.000,0.200,2694.000,0.300,877.000,0.500,921.000,1.000,341.000,5.000,0
"03/04/08","19:14:41",45181.000,"cc",28291.885,6.00,6,0.100,40365.000,0.200,2764.000,0.300,836.000,0.500,896.000,1.000,320.000,5.000,0
"03/04/08","19:14:47",44859.000,"cc",28317.836,6.00,6,0.100,40142.000,0.200,2606.000,0.300,890.000,0.500,888.000,1.000,333.000,5.000,0
"03/04/08","19:14:53",44924.000,"cc",28302.930,6.00,6,0.100,40204.000,0.200,2671.000,0.300,828.000,0.500,916.000,1.000,305.000,5.000,0
"03/04/08","19:14:59",44717.000,"cc",28343.731,6.00,6,0.100,39943.000,0.200,2687.000,0.300,851.000,0.500,918.000,1.000,318.000,5.000,0
"03/04/08","19:15:05",44933.000,"cc",28265.797,6.00,6,0.100,40203.000,0.200,2665.000,0.300,864.000,0.500,862.000,1.000,339.000,5.000,0
"03/04/08","19:15:11",44841.000,"cc",28279.781,6.00,6,0.100,39921.000,0.200,2718.000,0.300,943.000,0.500,956.000,1.000,303.000,5.000,0
"03/04/08","19:15:17",45099.000,"cc",28309.873,6.00,6,0.100,40348.000,0.200,2703.000,0.300,903.000,0.500,847.000,1.000,298.000,5.000,0
"03/04/08","19:15:23",44854.000,"cc",28367.022,6.00,6,0.100,40136.000,0.200,2667.000,0.300,872.000,0.500,833.000,1.000,346.000,5.000,0
"03/04/08","19:15:29",45220.000,"cc",28307.953,6.00,6,0.100,40355.000,0.200,2700.000,0.300,882.000,0.500,935.000,1.000,348.000,5.000,0
"03/04/08","19:15:35",45342.000,"cc",28273.594,6.00,6,0.100,40454.000,0.200,2733.000,0.300,900.000,0.500,909.000,1.000,346.000,5.000,0
"03/04/08","19:15:41",45289.000,"cc",28374.955,6.00,6,0.100,40472.000,0.200,2740.000,0.300,858.000,0.500,898.000,1.000,321.000,5.000,0
"03/04/08","19:15:47",45483.000,"cc",28251.375,6.00,6,0.100,40715.000,0.200,2632.000,0.300,854.000,0.500,948.000,1.000,334.000,5.000,0
"03/04/08","19:15:53",45242.000,"cc",28314.676,6.00,6,0.100,40500.000,0.200,2609.000,0.300,924.000,0.500,858.000,1.000,351.000,5.000,0
"03/04/08","19:15:59",45218.000,"cc",28273.604,6.00,6,0.100,40442.000,0.200,2687.000,0.300,919.000,0.500,853.000,1.000,317.000,5.000,0
"03/04/08","19:16:05",45285.000,"cc",28352.361,6.00,6,0.100,40571.000,0.200,2666.000,0.300,850.000,0.500,905.000,1.000,293.000,5.000,0
"03/04/08","19:16:11",45208.000,"cc",28297.973,6.00,6,0.100,40393.000,0.200,2704.000,0.300,872.000,0.500,931.000,1.000,308.000,5.000,0
"03/04/08","19:16:17",45133.000,"cc",28340.248,6.00,6,0.100,40398.000,0.200,2666.000,0.300,867.000,0.500,891.000,1.000,311.000,5.000,0
"03/04/08","19:16:23",45023.000,"cc",28383.326,6.00,6,0.100,40260.000,0.200,2697.000,0.300,844.000,0.500,868.000,1.000,354.000,5.000,0
"03/04/08","19:16:29",45113.000,"cc",28302.299,6.00,6,0.100,40429.000,0.200,2613.000,0.300,859.000,0.500,868.000,1.000,344.000,5.000,0
"03/04/08","19:16:35",45057.000,"cc",28384.867,6.00,6,0.100,40105.000,0.200,2805.000,0.300,898.000,0.500,901.000,1.000,348.000,5.000,0
"03/04/08","19:16:41",45109.000,"cc",28265.006,6.00,6,0.100,40312.000,0.200,2669.000,0.300,867.000,0.500,933.000,1.000,328.000,5.000,0